Tracking 29892 objects as of 21-Nov-2024
HD Live streaming from Space Station
objects crossing your sky now

STARLINK-30274

Track STARLINK-30274 now!
10-day predictions
STARLINK-30274 is classified as:


NORAD ID: 57672
Int'l Code: 2023-124K
Perigee: 469.6 km
Apogee: 471.1 km
Inclination: 53.2 °
Period: 93.9 minutes
Semi major axis: 6841 km
RCS: Unknown
Launch date: August 22, 2023
Source: United States (US)
Launch site: AIR FORCE WESTERN TEST RANGE (AFWTR)
Your satellite tracking list
Your tracking list is empty




NASA's NSSDC Master Catalog

Two Line Element Set (TLE):
1 57672U 23124K   24325.79255821  .00003565  00000-0  11719-3 0  9995
2 57672  53.1614 248.6638 0001132  78.1896 281.9233 15.34231112 71001
Source of the keplerian elements: AFSPC